Airderas, Indonesia

9:14 PM WIB on February 22, 2017 (GMT +0700)
Sultan Syarif Kasim Ii

Weather History for WIBB - May, 2013

Change the Weather History Date:

Sunday, May 26, 2013

  Actual Average Record
Temperature  
Mean Temperature 83 °F -  
Max Temperature 94 °F - - ()
Min Temperature 72 °F - - ()
Cooling Degree Days 18    
Growing Degree Days 33 (Base 50)    
Moisture  
Dew Point 76 °F    
Average Humidity 74    
Maximum Humidity 94    
Minimum Humidity 49    
Precipitation  
Precipitation 0.00 in - - ()
Sea Level Pressure  
Sea Level Pressure 29.78 in    
Wind  
Wind Speed 2 mph ()    
Max Wind Speed 12 mph    
Max Gust Speed -    
Visibility 5.1 miles    
Events      
T = Trace of Precipitation, MM = Missing Value Source: Averaged Metar Reports

Daily Weather History Graph

Daily Weather History Graph

Search for Another Location

Airport or City:

Trip Planner

Search our weather history database for the weather conditions in past years. The results will help you decide how hot, cold, wet, or windy it might be!

Date:

Astronomy

May. 26, 2013 Rise Set
Actual Time 6:06 AM WIB 6:15 PM WIB
Civil Twilight 5:44 AM WIB 6:37 PM WIB
Nautical Twilight 5:18 AM WIB 7:03 PM WIB
Astronomical Twilight 4:53 AM WIB 7:29 PM WIB
Moon 7:34 PM WIB (5/26) 7:00 AM WIB (5/26)
Length of Visible Light 12h 52m
Length of Day
12h 08m
Full, 98% of the Moon is Illuminated
May 26
Full
Jun 1
Last Quarter
Jun 8
New
Jun 17
First Quarter
Jun 23
Full

Hourly Weather History & Observations

Time (WIB) Temp. Heat Index Dew Point Humidity Pressure Visibility Wind Dir Wind Speed Gust Speed Precip Events Conditions
1:00 AM 81 °F - 78 °F 86% 29.81 in 3 mi Calm Calm - -   Smoke
4:00 AM 79 °F - 76 °F 88% 29.78 in 2 mi Calm Calm - -   Smoke
6:00 AM 78.8 °F - 75.2 °F 89% 29.77 in - North - - N/A   Scattered Clouds
7:00 AM 78 °F - 77 °F 94% 29.78 in 3 mi Calm Calm - -   Scattered Clouds
7:00 AM 78.8 °F - 77.0 °F 94% 29.77 in - North - - N/A   Scattered Clouds
8:00 AM 78.8 °F - 77.0 °F 94% 29.80 in 3.7 mi Calm Calm - N/A   Partly Cloudy
9:00 AM 82.4 °F 90.9 °F 77.0 °F 84% 29.83 in 4.3 mi Calm Calm - N/A   Partly Cloudy
10:00 AM 84 °F - 77 °F 74% 29.84 in 5 mi Calm Calm - -   Partly Cloudy
10:00 AM 84.2 °F 94.1 °F 77.0 °F 79% 29.83 in 5.0 mi Calm Calm - N/A   Scattered Clouds
11:00 AM 87.8 °F 99.7 °F 77.0 °F 70% 29.83 in 6.2 mi Calm Calm - N/A   Scattered Clouds
12:00 PM 89.6 °F 99.8 °F 75.2 °F 62% 29.80 in 6.2 mi Calm Calm - N/A   Scattered Clouds
1:00 PM 91 °F - 74 °F 49% 29.78 in 6 mi WNW 5.8 mph - -   Partly Cloudy
1:00 PM 91.4 °F 100.1 °F 73.4 °F 55% 29.77 in 6.2 mi WNW 5.8 mph - N/A   Scattered Clouds
2:00 PM 93.2 °F 102.4 °F 73.4 °F 52% 29.74 in 6.2 mi Calm Calm - N/A   Scattered Clouds
3:00 PM 93.2 °F 107.2 °F 77.0 °F 59% 29.74 in 6.2 mi North 11.5 mph - N/A   Scattered Clouds
4:00 PM 90 °F - 76 °F 55% 29.73 in 6 mi NW 11.5 mph - -   Partly Cloudy
4:00 PM 89.6 °F 99.8 °F 75.2 °F 62% 29.71 in 6.2 mi NW 11.5 mph - N/A   Scattered Clouds
5:00 PM 87.8 °F 95.6 °F 73.4 °F 62% 29.71 in 6.2 mi NNW 9.2 mph - N/A   Partly Cloudy
6:00 PM 86.0 °F 93.4 °F 73.4 °F 66% 29.74 in 5.6 mi Calm Calm - N/A   Partly Cloudy
7:00 PM 84 °F - 76 °F 70% 29.75 in 5 mi Calm Calm - -   Scattered Clouds
7:00 PM 84.2 °F 92.3 °F 75.2 °F 74% 29.74 in 5.0 mi Calm Calm - N/A   Partly Cloudy
8:00 PM 82.4 °F 90.9 °F 77.0 °F 84% 29.77 in 5.0 mi Calm Calm - N/A   Scattered Clouds
9:00 PM 82.4 °F 90.9 °F 77.0 °F 84% 29.80 in 5.0 mi Calm Calm - N/A   Partly Cloudy
10:00 PM 80 °F - 76 °F 84% 29.83 in 5 mi Calm Calm - -   Scattered Clouds
10:00 PM 80.6 °F 86.2 °F 75.2 °F 84% 29.83 in 5.0 mi Calm Calm - N/A   Partly Cloudy